Regional Weather Roundup
Issued by NWS

Home | Current Version | Previous Version | Text Only | Print | Product List | Glossary Off
Versions: 1 2 3 4 5 6 7 8 9 10 11 12 13 14 15 16 17 18 19 20 21 22 23 24 25 26 27 28 29 30 31 32 33 34 35 36 37 38 39 40 41 42 43 44 45 46 47 48 49 50

000
ASUS45 KBOI 090810
RWRID

IDAHO REGIONAL WEATHER ROUNDUP
NATIONAL WEATHER SERVICE BOISE ID
100 AM MST TUE FEB 09 2016

NOTE: "FAIR" INDICATES FEW OR NO CLOUDS BELOW 12000 FEET
WITH NO SIGNIFICANT WEATHER AND/OR OBSTRUCTIONS TO VISIBILITY

IDZ012-014-090900-
SOUTHWEST IDAHO


CITY           SKY/WX    TMP DP  RH WIND       PRES   REMARKS
BOISE          PTCLDY    34  27  75 SE8       30.63F WCI  27
CALDWELL       PTCLDY    28  28 100 E5        30.66F WCI  23
MOUNTAIN HOME  CLEAR     29  25  86 SE13      30.63S WCI  19
$$

IDZ016-017-090900-
SOUTHCENTRAL IDAHO


CITY           SKY/WX    TMP DP  RH WIND       PRES   REMARKS
BURLEY         CLOUDY    29  28  96 NE10      30.60S FOG     WCI  20
JEROME         FOG       23  21  92 E18       30.60F VSB 3/4 WCI   9
TWIN FALLS     FOG       29  29 100 SE5       30.60F VSB 1/4 WCI  24
$$

IDZ019>023-090900-
SOUTHEAST IDAHO


CITY           SKY/WX    TMP DP  RH WIND       PRES   REMARKS
IDAHO FALLS    FOG       18  15  88 CALM      30.63F VSB 1/4
POCATELLO      FOG       26  26 100 NE3       30.63F VSB 1/2
REXBURG        CLOUDY    13  11  92 CALM      30.62F
$$

IDZ006-010-011-018-031-032-090900-
CENTRAL IDAHO MOUNTAINS


CITY           SKY/WX    TMP DP  RH WIND       PRES   REMARKS
MCCALL         MOCLDY    20  18  92 CALM      30.56F FOG
HAILEY         CLEAR     27  21  80 NW8       30.59F WCI  18
STANLEY          N/A     14  10  84 E3        30.64R
SALMON         CLOUDY    12   9  85 CALM      30.67R
CHALLIS        CLEAR     11   7  84 CALM      30.64S
$$

IDZ002-004-006-007-026-090900-
NORTHERN IDAHO


CITY           SKY/WX    TMP DP  RH WIND       PRES   REMARKS
LEWISTON       PTCLDY    44  34  67 E9        30.49F
LOWELL           N/A     34  32  92 NW5       30.61F WCI  30
COEUR D`ALENE  PTCLDY    32  27  80 NE10      30.51S WCI  24
MULLAN PASS    CLEAR     39  30  70 W5        30.50S
$$



USA.gov is the U.S. government's official web portal to all federal, state and local government web resources and services.